Location: Hohenfelde
(53.8441°N, 9.6220°E)
Time: 11:20:49
(UTC+00:00)

Cosmos 1378 - Pass Details

Date: 14 July 2020
Orbit: 493 x 500 km, 82.5° (Epoch: 09 August)

Event Time Altitude Azimuth Distance (km) Brightness Sun altitude
Rises 01:48:54 0° 351° (N) 2,610 7.6 -8.6°
Reaches altitude 10° 01:51:04 10° 356° (N) 1,722 6.7 -8.4°
Maximum altitude 01:54:47 56° 75° (ENE) 606 3.8 -8.1°
Drops below altitude 10° 01:58:28 10° 155° (SSE) 1,708 5.5 -7.8°
Sets 02:00:36 0° 159° (SSE) 2,587 6.4 -7.6°
